Tracking 19575 objects as of 19-Feb-2019
HD Live streaming from Space Station
objects crossing your sky now

NABEO/ELECTRON

Track NABEO/ELECTRON now!
10-day predictions


NORAD ID: 43692
Int'l Code: 2018-088C
Perigee: 503.8 km
Apogee: 524.3 km
Inclination: 85.0 °
Period: 94.8 minutes
Semi major axis: 6885 km
RCS: Unknown
Launch date: November 11, 2018
Source: United States (US)
Launch site: Rocket Lab Launch Complex (RLLC)
aabbcc
Your satellite tracking list
Your tracking list is empty




NASA's NSSDC Master Catalog

Two Line Element Set (TLE):
1 43692U 18088C   19050.08888057  .00001104  00000-0  49883-4 0  9990
2 43692  85.0332  37.1396 0014907 267.4498  92.5036 15.19634993 15154
Source of the keplerian elements: AFSPC